Satellite-Ground Cal/Val Site Overpasses Predictions

Prediction of Satellite NPP Overpassing Cal/Val Site: Antarctic Dome C

Ground Cal/Val Site Location: Latitude: -75.10, Longitude: 123.35; Satellite-Ground Site NADIR distance within 100 km.

Table of predicted overpasses for the next 14.0 days since TLE Epoch: 8/28/2021
Interval Starting Time Ending Time Minimum Distance Time Minimum Distance (km)
1 08/28/2021 07:25:50 08/28/2021 07:26:17 08/28/2021 07:26:03 35.17
2 08/31/2021 14:49:17 08/31/2021 14:49:46 08/31/2021 14:49:31 11.56
3 09/02/2021 07:32:07 09/02/2021 07:32:36 09/02/2021 07:32:22 2.17
4 09/05/2021 14:55:37 09/05/2021 14:56:05 09/05/2021 14:55:51 25.50
5 09/06/2021 14:36:53 09/06/2021 14:37:10 09/06/2021 14:37:01 81.74
6 09/07/2021 07:38:27 09/07/2021 07:38:54 09/07/2021 07:38:41 37.72
7 09/08/2021 07:19:41 09/08/2021 07:20:01 09/08/2021 07:19:51 72.10
